This is the latest recevied weather packets stored in our database for station/object IZ0VWB-3. If no packets are shown the sender has not sent any weather packets the latest 10 day(s).
| Time | Temp. | Humidity | Pressure | Rain* | Wind** | Luminosity | Snow |
|---|---|---|---|---|---|---|---|
| 1777338840 | 10.56° C | 79% | 1003.8 hPa | 0 mm | - | - | - |
| 1777338240 | 11.11° C | 79% | 1003.8 hPa | 0 mm | - | - | - |
| 1777337640 | 11.11° C | 79% | 1003.8 hPa | 0 mm | - | - | - |
| 1777337038 | 11.11° C | 79% | 1004 hPa | 0 mm | - | - | - |
| 1777336439 | 10.56° C | 79% | 1004.1 hPa | 0 mm | - | - | - |
| 1777335840 | 11.11° C | 79% | 1004.1 hPa | 0 mm | - | - | - |
| 1777335238 | 11.11° C | 78% | 1004.3 hPa | 0 mm | - | - | - |
| 1777334638 | 11.67° C | 78% | 1004.2 hPa | 0 mm | - | - | - |
| 1777334039 | 11.67° C | 77% | 1004.2 hPa | 0 mm | - | - | - |
| 1777333440 | 11.67° C | 76% | 1004.3 hPa | 0 mm | - | - | - |
| 1777332838 | 11.67° C | 75% | 1004.2 hPa | 0 mm | - | - | - |
| 1777332239 | 12.22° C | 74% | 1004.3 hPa | 0 mm | - | - | - |
| 1777331639 | 12.22° C | 74% | 1004.3 hPa | 0 mm | - | - | - |
| 1777331033 | 12.78° C | 75% | 1004.2 hPa | 0 mm | - | - | - |
| 1777330433 | 12.78° C | 74% | 1004.5 hPa | 0 mm | - | - | - |
| 1777329834 | 12.78° C | 75% | 1004.5 hPa | 0 mm | - | - | - |
| 1777329233 | 12.78° C | 74% | 1004.4 hPa | 0 mm | - | - | - |
| 1777328633 | 12.78° C | 74% | 1004.3 hPa | 0 mm | - | - | - |
| 1777328033 | 12.78° C | 74% | 1004.3 hPa | 0 mm | - | - | - |
| 1777327434 | 12.78° C | 74% | 1004.3 hPa | 0 mm | - | - | - |
| 1777326832 | 12.78° C | 72% | 1004.3 hPa | 0 mm | - | - | - |
| 1777326233 | 13.33° C | 72% | 1004.4 hPa | 0 mm | - | - | - |
| 1777325634 | 13.33° C | 72% | 1004.5 hPa | 0 mm | - | - | - |
| 1777325033 | 13.33° C | 72% | 1004.4 hPa | 0 mm | - | - | - |
| 1777324433 | 13.33° C | 70% | 1004.4 hPa | 0 mm | - | - | - |
* Rain latest hour (hover to see other rain measurements)
** Current wind speed in m/s (hover to see current wind gust speed)